Location: Unspecified
(0.0000°N, 0.0000°E)
Time: 07:24:27
(UTC+00:00)

Tiros 1 despin weight - Pass Details

Date: 10 October 2023
Orbit: 583 x 627 km, 48.2° (Epoch: 05 December)

Event Time Altitude Azimuth Distance (km) Brightness Sun altitude
Rises 13:22:41 0° 244° (WSW) 2,903 ? 65.2°
Reaches altitude 10° 13:25:26 10° 259° (W) 1,997 ? 64.6°
Maximum altitude 13:28:58 22° 310° (NW) 1,385 ? 63.7°
Drops below altitude 10° 13:32:29 10° 360° (N) 1,992 ? 62.9°
Sets 13:35:15 0° 16° (NNE) 2,893 ? 62.2°
